PIMOHWEATHER Station Historical Data
Daily Summary for November 17, 2020 Units:  Metric    English   Both
Daily Weekly Monthly Yearly
  High: Low: Average:
Temperature: 32.0 °C 26.0 °C 28 °C
Dew Point: 24.0 °C 21.0 °C 22.6 °C
Humidity: 83% 59% 73%
Wind Speed: 31km/h 0km/h 7.3km/h
Wind Gust: 40km/h - -
Wind- - SSW
Pressure: 1015.0 hPa 1012.1 hPa -
Precipitation: 1.50 mm    
 
 
Tabular Data for November 17, 2020
Time Temperature Dew Point Pressure Wind Wind Speed Wind Gust Humidity Rainfall Rate (Hourly) solar
00:04 27.0 °C 21.0 °C 1014.5 hPa SW 10 km/h 12 km/h 72% 0.00 mm 0.00 W/m2
00:09 27.0 °C 21.0 °C 1014.5 hPa SE 9 km/h 12 km/h 72% 0.00 mm 0.00 W/m2
00:14 27.0 °C 21.0 °C 1014.4 hPa SSW 4 km/h 4 km/h 72% 0.00 mm 0.00 W/m2
00:19 27.0 °C 22.0 °C 1014.4 hPa SSW 1 km/h 4 km/h 73% 0.00 mm 0.00 W/m2
00:24 27.0 °C 21.0 °C 1014.2 hPa SW 8 km/h 12 km/h 73% 0.00 mm 0.00 W/m2
00:29 27.0 °C 21.0 °C 1014.3 hPa SSE 4 km/h 4 km/h 73% 0.00 mm 0.00 W/m2
00:34 27.0 °C 21.0 °C 1014.2 hPa SSE 1 km/h 4 km/h 73% 0.00 mm 0.00 W/m2
00:39 27.0 °C 21.0 °C 1014.2 hPa East 10 km/h 12 km/h 73% 0.00 mm 0.00 W/m2
00:44 27.0 °C 21.0 °C 1013.9 hPa SSW 5 km/h 8 km/h 73% 0.00 mm 0.00 W/m2
00:49 27.0 °C 21.0 °C 1013.9 hPa East 6 km/h 8 km/h 73% 0.00 mm 0.00 W/m2
00:54 27.0 °C 21.0 °C 1013.8 hPa ESE 10 km/h 12 km/h 73% 0.00 mm 0.00 W/m2
00:59 27.0 °C 21.0 °C 1013.7 hPa SSW 5 km/h 8 km/h 73% 0.00 mm 0.00 W/m2
01:04 27.0 °C 21.0 °C 1013.8 hPa SW 6 km/h 8 km/h 73% 0.00 mm 0.00 W/m2
01:09 27.0 °C 21.0 °C 1013.8 hPa SSW 3 km/h 4 km/h 73% 0.00 mm 0.00 W/m2
01:14 26.0 °C 21.0 °C 1013.6 hPa SSE 2 km/h 4 km/h 73% 0.00 mm 0.00 W/m2
01:19 26.0 °C 21.0 °C 1013.5 hPa South 4 km/h 4 km/h 73% 0.00 mm 0.00 W/m2
01:24 26.0 °C 21.0 °C 1013.4 hPa SSW 1 km/h 4 km/h 73% 0.00 mm 0.00 W/m2
01:29 27.0 °C 21.0 °C 1013.3 hPa SSE 3 km/h 4 km/h 73% 0.00 mm 0.00 W/m2
01:34 26.0 °C 21.0 °C 1013.2 hPa Calm     73% 0.00 mm 0.00 W/m2
01:39 26.0 °C 21.0 °C 1013.1 hPa South 3 km/h 4 km/h 74% 0.00 mm 0.00 W/m2
01:44 26.0 °C 21.0 °C 1013.3 hPa SSW 3 km/h 4 km/h 74% 0.00 mm 0.00 W/m2
01:49 26.0 °C 21.0 °C 1013.2 hPa ESE 6 km/h 8 km/h 74% 0.00 mm 0.00 W/m2
01:54 26.0 °C 21.0 °C 1013.2 hPa South 1 km/h 4 km/h 74% 0.00 mm 0.00 W/m2
01:59 26.0 °C 21.0 °C 1013.1 hPa SSE 4 km/h 4 km/h 74% 0.00 mm 0.00 W/m2
02:04 26.0 °C 21.0 °C 1013.1 hPa SSW 1 km/h 4 km/h 74% 0.00 mm 0.00 W/m2
02:09 26.0 °C 21.0 °C 1013.1 hPa Calm     74% 0.00 mm 0.00 W/m2
02:14 26.0 °C 21.0 °C 1012.6 hPa Calm   4 km/h 74% 0.00 mm 0.00 W/m2
02:19 26.0 °C 21.0 °C 1012.7 hPa SSW 3 km/h 4 km/h 74% 0.00 mm 0.00 W/m2
02:24 26.0 °C 21.0 °C 1012.7 hPa SSW 1 km/h 4 km/h 74% 0.00 mm 0.00 W/m2
02:29 27.0 °C 22.0 °C 1012.6 hPa SSW 6 km/h 8 km/h 74% 0.00 mm 0.00 W/m2
02:34 27.0 °C 22.0 °C 1012.5 hPa SSW 5 km/h 8 km/h 75% 0.00 mm 0.00 W/m2
02:39 26.0 °C 22.0 °C 1012.5 hPa SSW 3 km/h 4 km/h 76% 0.00 mm 0.00 W/m2
02:44 26.0 °C 22.0 °C 1012.4 hPa SSW 1 km/h 4 km/h 76% 0.00 mm 0.00 W/m2
02:49 26.0 °C 22.0 °C 1012.3 hPa Calm   4 km/h 77% 1.80 mm 0.00 W/m2
02:54 26.0 °C 22.0 °C 1012.3 hPa Calm     77% 1.80 mm 0.00 W/m2
02:59 26.0 °C 22.0 °C 1012.2 hPa Calm     78% 1.80 mm 0.00 W/m2
03:04 26.0 °C 22.0 °C 1012.2 hPa Calm     80% 3.61 mm 0.00 W/m2
03:09 26.0 °C 22.0 °C 1012.2 hPa SSW 2 km/h 4 km/h 80% 5.41 mm 0.00 W/m2
03:14 26.0 °C 22.0 °C 1012.2 hPa SSW 4 km/h 4 km/h 80% 5.41 mm 0.00 W/m2
03:19 26.0 °C 22.0 °C 1012.3 hPa Calm     81% 3.61 mm 0.00 W/m2
03:24 26.0 °C 22.0 °C 1012.1 hPa Calm     81% 1.80 mm 0.00 W/m2
03:29 26.0 °C 22.0 °C 1012.2 hPa Calm     81% 0.00 mm 0.00 W/m2
03:34 26.0 °C 22.0 °C 1012.2 hPa SSW 3 km/h 4 km/h 82% 0.00 mm 0.00 W/m2
03:39 26.0 °C 23.0 °C 1012.3 hPa SSW 4 km/h 4 km/h 82% 0.00 mm 0.00 W/m2
03:44 26.0 °C 22.0 °C 1012.1 hPa SSW 6 km/h 8 km/h 81% 0.00 mm 0.00 W/m2
03:49 26.0 °C 22.0 °C 1012.5 hPa SSW 6 km/h 8 km/h 81% 0.00 mm 0.00 W/m2
03:54 26.0 °C 22.0 °C 1012.5 hPa SSW 4 km/h 4 km/h 81% 0.00 mm 0.00 W/m2
03:59 26.0 °C 22.0 °C 1012.2 hPa SSW 4 km/h 4 km/h 81% 0.00 mm 0.00 W/m2
04:04 26.0 °C 22.0 °C 1012.3 hPa SW 2 km/h 4 km/h 81% 0.00 mm 0.00 W/m2
04:09 26.0 °C 23.0 °C 1012.4 hPa NNW 8 km/h 12 km/h 82% 0.00 mm 0.00 W/m2
04:14 26.0 °C 22.0 °C 1012.3 hPa NW 5 km/h 8 km/h 82% 0.00 mm 0.00 W/m2
04:19 26.0 °C 23.0 °C 1012.6 hPa SSW 5 km/h 8 km/h 82% 0.00 mm 0.00 W/m2
04:24 26.0 °C 22.0 °C 1012.5 hPa SSW 5 km/h 8 km/h 81% 0.00 mm 0.00 W/m2
04:29 26.0 °C 22.0 °C 1012.8 hPa SSW 2 km/h 4 km/h 81% 0.00 mm 0.00 W/m2
04:34 26.0 °C 23.0 °C 1012.8 hPa Calm     82% 0.00 mm 0.00 W/m2
04:39 26.0 °C 23.0 °C 1013.0 hPa Calm   4 km/h 82% 0.00 mm 0.00 W/m2
04:44 26.0 °C 23.0 °C 1013.0 hPa SW 5 km/h 8 km/h 81% 0.00 mm 0.00 W/m2
04:49 26.0 °C 23.0 °C 1013.1 hPa SSW 4 km/h 4 km/h 81% 0.00 mm 0.00 W/m2
04:54 26.0 °C 23.0 °C 1013.2 hPa SSW 4 km/h 4 km/h 81% 0.00 mm 0.00 W/m2
04:59 26.0 °C 23.0 °C 1013.3 hPa SSW 4 km/h 4 km/h 81% 0.00 mm 0.00 W/m2
05:04 26.0 °C 23.0 °C 1013.3 hPa SSW 6 km/h 8 km/h 82% 0.00 mm 0.00 W/m2
05:09 26.0 °C 23.0 °C 1013.3 hPa SSW 5 km/h 8 km/h 82% 0.00 mm 0.00 W/m2
05:14 26.0 °C 23.0 °C 1013.3 hPa SSW 4 km/h 4 km/h 82% 0.00 mm 0.00 W/m2
05:19 26.0 °C 23.0 °C 1013.3 hPa SW 5 km/h 8 km/h 82% 0.00 mm 0.00 W/m2
05:24 26.0 °C 23.0 °C 1013.2 hPa SW 13 km/h 16 km/h 82% 0.00 mm 0.00 W/m2
05:29 26.0 °C 23.0 °C 1013.2 hPa SSW 10 km/h 12 km/h 81% 0.00 mm 0.00 W/m2
05:34 26.0 °C 23.0 °C 1013.1 hPa SW 8 km/h 8 km/h 81% 0.00 mm 0.00 W/m2
05:39 26.0 °C 23.0 °C 1013.0 hPa SSW 10 km/h 12 km/h 81% 0.00 mm 0.00 W/m2
05:44 26.0 °C 23.0 °C 1013.0 hPa SSW 7 km/h 8 km/h 82% 0.00 mm 0.00 W/m2
05:49 26.0 °C 23.0 °C 1013.3 hPa SSW 4 km/h 4 km/h 82% 0.00 mm 0.00 W/m2
05:54 26.0 °C 23.0 °C 1013.3 hPa SSW 4 km/h 4 km/h 82% 0.00 mm 0.00 W/m2
05:59 26.0 °C 23.0 °C 1013.4 hPa Calm     83% 0.00 mm 0.85 W/m2
06:04 26.0 °C 23.0 °C 1013.7 hPa Calm     82% 0.00 mm 2.08 W/m2
06:09 26.0 °C 23.0 °C 1013.8 hPa SSW 4 km/h 4 km/h 82% 0.00 mm 5.63 W/m2
06:14 26.0 °C 23.0 °C 1013.9 hPa Calm   4 km/h 82% 0.00 mm 6.48 W/m2
06:19 26.0 °C 23.0 °C 1013.9 hPa Calm     82% 0.00 mm 8.56 W/m2
06:24 26.0 °C 23.0 °C 1014.1 hPa Calm     82% 0.00 mm 12.48 W/m2
06:29 26.0 °C 23.0 °C 1014.1 hPa Calm     82% 0.00 mm 22.51 W/m2
06:34 26.0 °C 23.0 °C 1014.1 hPa Calm     82% 0.00 mm 25.94 W/m2
06:39 26.0 °C 23.0 °C 1014.2 hPa Calm     82% 0.00 mm 34.62 W/m2
06:44 26.0 °C 23.0 °C 1014.2 hPa SSW 1 km/h 4 km/h 82% 0.00 mm 44.16 W/m2
06:49 27.0 °C 23.0 °C 1014.4 hPa SSW 2 km/h 4 km/h 81% 0.00 mm 55.90 W/m2
06:54 27.0 °C 23.0 °C 1014.3 hPa Calm     81% 0.00 mm 68.02 W/m2
06:59 27.0 °C 23.0 °C 1014.2 hPa SSW 4 km/h 4 km/h 81% 0.00 mm 76.70 W/m2
07:04 27.0 °C 23.0 °C 1014.4 hPa SSW 1 km/h 4 km/h 80% 0.00 mm 77.19 W/m2
07:09 27.0 °C 23.0 °C 1014.3 hPa WNW 6 km/h 8 km/h 79% 0.00 mm 79.76 W/m2
07:14 27.0 °C 23.0 °C 1014.4 hPa NW 2 km/h 4 km/h 78% 0.00 mm 84.53 W/m2
07:19 27.0 °C 23.0 °C 1014.5 hPa Calm   4 km/h 77% 0.00 mm 92.36 W/m2
07:24 27.0 °C 23.0 °C 1014.6 hPa SSW 4 km/h 4 km/h 76% 0.00 mm 106.68 W/m2
07:29 28.0 °C 23.0 °C 1014.7 hPa WSW 5 km/h 8 km/h 76% 0.00 mm 125.27 W/m2
07:34 28.0 °C 23.0 °C 1014.6 hPa SSW 4 km/h 4 km/h 75% 0.00 mm 144.36 W/m2
07:39 28.0 °C 23.0 °C 1014.6 hPa NNW 10 km/h 16 km/h 74% 0.00 mm 164.78 W/m2
07:44 28.0 °C 23.0 °C 1014.7 hPa North 13 km/h 16 km/h 74% 0.00 mm 180.44 W/m2
07:49 28.0 °C 23.0 °C 1014.9 hPa ENE 5 km/h 8 km/h 74% 0.00 mm 177.39 W/m2
07:54 28.0 °C 23.0 °C 1015.0 hPa NNW 5 km/h 8 km/h 72% 0.00 mm 175.19 W/m2
07:59 28.0 °C 23.0 °C 1014.9 hPa NNW 6 km/h 8 km/h 72% 0.00 mm 260.21 W/m2
08:04 28.0 °C 23.0 °C 1014.8 hPa WNW 9 km/h 12 km/h 72% 0.00 mm 162.22 W/m2
08:09 28.0 °C 23.0 °C 1014.8 hPa NNW 13 km/h 16 km/h 73% 0.00 mm 124.05 W/m2
08:14 28.0 °C 23.0 °C 1015.0 hPa NNW 8 km/h 8 km/h 73% 0.00 mm 115.36 W/m2
08:19 28.0 °C 23.0 °C 1014.9 hPa NNW 4 km/h 4 km/h 73% 0.00 mm 131.88 W/m2
08:24 28.0 °C 23.0 °C 1014.9 hPa NNE 4 km/h 8 km/h 73% 0.00 mm 125.27 W/m2
08:29 28.0 °C 23.0 °C 1014.9 hPa NNE 1 km/h 4 km/h 72% 0.00 mm 82.82 W/m2
08:34 28.0 °C 23.0 °C 1014.7 hPa NNE 4 km/h 4 km/h 73% 0.00 mm 82.33 W/m2
08:39 28.0 °C 23.0 °C 1014.9 hPa Calm   4 km/h 73% 0.00 mm 94.07 W/m2
08:44 28.0 °C 23.0 °C 1014.8 hPa Calm   4 km/h 72% 0.00 mm 132.24 W/m2
08:49 29.0 °C 23.0 °C 1014.9 hPa Calm     72% 0.00 mm 125.27 W/m2
08:54 29.0 °C 23.0 °C 1014.9 hPa NW 3 km/h 4 km/h 72% 0.00 mm 152.68 W/m2
08:59 29.0 °C 23.0 °C 1014.8 hPa ENE 5 km/h 8 km/h 71% 0.00 mm 273.30 W/m2
09:04 30.0 °C 23.0 °C 1014.9 hPa SSW 5 km/h 8 km/h 71% 0.00 mm 612.90 W/m2
09:09 30.0 °C 24.0 °C 1014.9 hPa South 10 km/h 16 km/h 69% 0.00 mm 638.96 W/m2
09:14 30.0 °C 23.0 °C 1014.7 hPa ESE 10 km/h 12 km/h 66% 0.00 mm 628.56 W/m2
09:19 30.0 °C 23.0 °C 1014.8 hPa SSE 10 km/h 12 km/h 66% 0.00 mm 663.18 W/m2
09:24 31.0 °C 23.0 °C 1014.8 hPa SSW 4 km/h 8 km/h 64% 0.00 mm 659.76 W/m2
09:29 31.0 °C 23.0 °C 1014.7 hPa SE 12 km/h 16 km/h 62% 0.00 mm 685.33 W/m2
09:34 31.0 °C 23.0 °C 1014.5 hPa ENE 10 km/h 12 km/h 64% 0.00 mm 679.70 W/m2
09:39 31.0 °C 23.0 °C 1014.3 hPa SW 9 km/h 12 km/h 61% 0.00 mm 645.07 W/m2
09:44 31.0 °C 23.0 °C 1014.5 hPa NW 6 km/h 8 km/h 61% 0.00 mm 672.85 W/m2
09:49 31.0 °C 23.0 °C 1014.4 hPa East 4 km/h 4 km/h 60% 0.00 mm 690.96 W/m2
09:54 32.0 °C 23.0 °C 1014.4 hPa NW 9 km/h 12 km/h 59% 0.00 mm 685.82 W/m2
09:59 32.0 °C 23.0 °C 1014.4 hPa East 19 km/h 24 km/h 59% 0.00 mm 720.92 W/m2
10:04 32.0 °C 23.0 °C 1014.4 hPa East 21 km/h 24 km/h 59% 0.00 mm 733.53 W/m2
10:09 32.0 °C 23.0 °C 1014.4 hPa ENE 17 km/h 20 km/h 59% 0.00 mm 749.55 W/m2
10:14 32.0 °C 23.0 °C 1014.4 hPa North 18 km/h 24 km/h 59% 0.00 mm 773.04 W/m2
10:19 31.0 °C 23.0 °C 1014.3 hPa North 11 km/h 12 km/h 59% 0.00 mm 557.85 W/m2
10:24 32.0 °C 22.0 °C 1014.5 hPa ENE 8 km/h 12 km/h 59% 0.00 mm 739.64 W/m2
10:29 32.0 °C 23.0 °C 1014.4 hPa SSE 7 km/h 16 km/h 60% 0.00 mm 215.56 W/m2
10:34 32.0 °C 24.0 °C 1014.4 hPa West 15 km/h 20 km/h 66% 0.00 mm 194.76 W/m2
10:39 30.0 °C 23.0 °C 1014.4 hPa NNW 18 km/h 24 km/h 67% 0.00 mm 213.35 W/m2
10:44 30.0 °C 23.0 °C 1014.2 hPa NNW 12 km/h 16 km/h 66% 0.00 mm 218.12 W/m2
10:49 30.0 °C 23.0 °C 1014.2 hPa SSW 17 km/h 24 km/h 66% 0.00 mm 200.39 W/m2
10:54 30.0 °C 23.0 °C 1014.0 hPa WSW 14 km/h 20 km/h 66% 0.00 mm 167.85 W/m2
10:59 30.0 °C 23.0 °C 1014.3 hPa NNW 16 km/h 20 km/h 67% 0.00 mm 168.21 W/m2
11:04 30.0 °C 23.0 °C 1013.9 hPa SW 9 km/h 16 km/h 67% 0.00 mm 139.22 W/m2
11:09 30.0 °C 23.0 °C 1014.0 hPa SW 14 km/h 20 km/h 67% 0.00 mm 117.93 W/m2
11:14 30.0 °C 23.0 °C 1013.9 hPa NNW 12 km/h 16 km/h 67% 0.00 mm 123.19 W/m2
11:19 30.0 °C 23.0 °C 1013.9 hPa SW 12 km/h 16 km/h 67% 0.00 mm 130.90 W/m2
11:24 30.0 °C 23.0 °C 1013.9 hPa SW 18 km/h 20 km/h 67% 0.00 mm 152.68 W/m2
11:29 30.0 °C 23.0 °C 1013.8 hPa SW 10 km/h 16 km/h 67% 0.00 mm 158.30 W/m2
11:34 30.0 °C 23.0 °C 1013.6 hPa SW 11 km/h 16 km/h 66% 0.00 mm 359.54 W/m2
11:39 30.0 °C 23.0 °C 1013.4 hPa SSW 21 km/h 28 km/h 65% 0.00 mm 456.31 W/m2
11:44 30.0 °C 23.0 °C 1013.4 hPa SSW 17 km/h 24 km/h 66% 0.00 mm 276.24 W/m2
11:49 30.0 °C 23.0 °C 1013.3 hPa SSW 21 km/h 24 km/h 66% 0.00 mm 343.52 W/m2
11:54 30.0 °C 23.0 °C 1013.3 hPa SW 19 km/h 24 km/h 66% 0.00 mm 293.24 W/m2
11:59 30.0 °C 23.0 °C 1013.3 hPa SW 10 km/h 12 km/h 66% 0.00 mm 168.70 W/m2
12:04 30.0 °C 23.0 °C 1013.1 hPa SW 15 km/h 20 km/h 66% 0.00 mm 203.44 W/m2
12:09 31.0 °C 23.0 °C 1013.0 hPa NW 9 km/h 12 km/h 65% 0.00 mm 205.52 W/m2
12:14 31.0 °C 23.0 °C 1013.0 hPa SW 20 km/h 24 km/h 67% 0.00 mm 488.86 W/m2
12:19 31.0 °C 23.0 °C 1012.9 hPa SW 19 km/h 28 km/h 66% 0.00 mm 655.48 W/m2
12:24 31.0 °C 23.0 °C 1012.7 hPa SW 20 km/h 24 km/h 65% 0.00 mm 668.45 W/m2
12:29 32.0 °C 24.0 °C 1012.8 hPa NW 16 km/h 24 km/h 63% 0.00 mm 689.24 W/m2
12:34 32.0 °C 24.0 °C 1012.7 hPa SW 19 km/h 24 km/h 63% 0.00 mm 639.82 W/m2
12:39 32.0 °C 24.0 °C 1012.6 hPa SSW 30 km/h 36 km/h 62% 0.00 mm 622.94 W/m2
12:44 32.0 °C 24.0 °C 1012.4 hPa SW 29 km/h 36 km/h 62% 0.00 mm 720.07 W/m2
12:49 32.0 °C 24.0 °C 1012.4 hPa SSW 31 km/h 40 km/h 61% 0.00 mm 720.56 W/m2
12:54 32.0 °C 24.0 °C 1012.3 hPa SW 30 km/h 36 km/h 63% 0.00 mm 582.08 W/m2
12:59 31.0 °C 23.0 °C 1012.3 hPa SW 23 km/h 28 km/h 63% 0.00 mm 347.43 W/m2
13:04 31.0 °C 23.0 °C 1012.2 hPa SSW 14 km/h 20 km/h 63% 0.00 mm 236.84 W/m2
13:09 32.0 °C 24.0 °C 1012.3 hPa SW 20 km/h 24 km/h 63% 0.00 mm 221.67 W/m2
PIMOHWEATHER Philippines
Compliments of Weather Underground - 2 mb